DELTA 1 DEB, 7081

Orbit data source: Space-Track

DELTA 1 DEB, 7081 is space debris in SSO originally from a launch on Tue, 06 Nov 1973 UTC launched from the Air Force Western Test Range (AFWTR). Debris objects in space refer to the collection of defunct objects orbiting the Earth. Examples of debris include non-operational satellites, rocket bodies, and fragments generated from explosions, collisions, or faulty payload assembly.

Loading next visibility...
Identifier
7081, 1973-086BZ
Orbit
SSO
Country
Flag of USUS
Related business
Manufacturer
Unknown
Mission
Spacecraft
Bus & Motor
Unknown
Mass
Unknown
Launch date (UTC)
1973-11-06 (52 years ago)
Launch vehicle
Unknown
Launch site
Air Force Western Test Range (AFWTR)
Object type
Payload
Rocket body
Debris
Shape & HBR
Unknown shape, 0.2 m
Radar Cross Section
Small (<0.1 m²)

Expand to show TLE details & history
Last TLE update: 1 day ago

TLE from 1 day ago
0 DELTA 1 DEB
1 07081U 73086BZ  25292.24637455  .00000210  00000-0  12470-2 0  9995
2 07081 102.2536  34.0043 0166523 229.3147 189.7008 12.69825334405119
Epoch: 2025-10-19T05:54Z
TLE epoch observation values (Epoch: 2025-10-19T05:54:46.761Z)
Latitude
56.70888°
Longitude
-101.87286°
Altitude
1,519.391 km
Speed
7.052 km/s
True Right ascension
00h 59m 09s
True Declination
56° 33' 58"
Sunlit
Object was in full shadow at epoch
Visualization orbit readout
Latitude
Unknown
Longitude
Unknown
Altitude
Unknown
Speed
Unknown
Apparent Right ascension
Unknown
Apparent Declination
Unknown
Sunlit
N/A
Visualization observer readout
Local Sidereal Time
01:39:40
Azimuth
Unknown
Elevation
Unknown
Doppler factor
Unknown
Orbital elements
Apogee altitude
1,509.396 km
Perigee altitude
1,251.008 km
Semi-major axis
7,758.339 km
Eccentricity
0.01665
Inclination
102.2536°
RAAN
34.0043°
Arg. of periapsis
229.3147°
True anomaly
189.38573°
Mean anomaly
189.7008°
Eccentric anomaly
189.54263°
Mean motion
3.17607 °/min
Orbital period
113.35 mins
BSTAR
0.001247
Loading maneuver chart data...
Computing Atmospheric mass density...
Loading historical data...
Loading historical data...
Loading historical data...
Loading historical data...
Loading historical data...
Loading historical data...
Loading historical data...

Documentation

Showing up to 5 results
|